STARLINK-30967, 58416

Orbit data source: Space-Track

STARLINK-30967, 58416 is a payload satellite owned by SpaceX/Seattle (US) in LEO that was launched on Wed, 22 Nov 2023 UTC via an FALCON 9 launch vehicle from the Air Force Eastern Test Range (AFETR). Payload-class satellites include a variety of spacecraft equipped with specific instruments for various scientific and technological missions. These include communications satellites like Starlink; space stations such as the ISS; scientific satellites like the Hubble; Earth observation satellites from companies like Planet Labs, Umbra, and HawkEye 360; GPS; miniature CubeSats for education and research; and military/defense satellites.

Loading next visibility...
Identifier
58416, 2023-180Q
Orbit
LEO
Country
Flag of USUS
Related business
Manufacturer
SpaceX/Seattle
Mission
Operational Commercial Communications
Bus & Motor
STARLINK V2M, Unknown motor
Mass
730 kg wet, ~700 kg dry
Launch date (UTC)
2023-11-22 (2 years ago)
Launch vehicle
FALCON 9
Launch site
Air Force Eastern Test Range (AFETR)
Object type
Payload
Rocket body
Debris
Shape & HBR
Box + 2 Pan, 14.5 m
Radar Cross Section
33.884 m², Large (>1 m²)

Expand to show TLE details & history
Last TLE update: 13 hours ago

TLE from 13 hours ago
0 STARLINK-30967
1 58416U 23180Q   25250.27776022  .00001297  00000-0  11103-3 0  9993
2 58416  43.0043 332.7539 0001239 273.4602  86.6099 15.02540508 99995
Epoch: 2025-09-07T06:39Z
TLE epoch observation values (Epoch: 2025-09-07T06:39:58.483Z)
Latitude
0.00003°
Longitude
-113.83929°
Altitude
558.793 km
Speed
7.584 km/s
True Right ascension
22h 11m 00s
True Declination
0° 00' 00"
Sunlit
Object was in full shadow at epoch
Visualization orbit readout
Latitude
Unknown
Longitude
Unknown
Altitude
Unknown
Speed
Unknown
Apparent Right ascension
Unknown
Apparent Declination
Unknown
Sunlit
N/A
Visualization observer readout
Local Sidereal Time
11:41:02
Azimuth
Unknown
Elevation
Unknown
Doppler factor
Unknown
Orbital elements
Apogee altitude
561.849 km
Perigee altitude
560.129 km
Semi-major axis
6,939.126 km
Eccentricity
0.00012
Inclination
43.0043°
RAAN
332.7539°
Arg. of periapsis
273.4602°
True anomaly
86.62407°
Mean anomaly
86.6099°
Eccentric anomaly
86.61699°
Mean motion
3.75479 °/min
Orbital period
95.88 mins
BSTAR
0.00011103
Loading maneuver chart data...
Computing Atmospheric mass density...
Loading historical data...
Loading historical data...
Loading historical data...
Loading historical data...
Loading historical data...
Loading historical data...
Loading historical data...

Documentation

Showing up to 5 results
|